EW5962 Weather Reports


Display with metric or nautical units.
time (UTC)temp
F
wind
direction
speed
MPH
gust
MPH
rain 1hr
in
rain 24hr
in
rain mn
in
humidity
%
barometer
mb
20260509053003 50 197 0.0 0.0 0.00 0.00 0.00 88 1013.3
20260509052509 50 197 0.0 0.0 0.00 0.00 0.00 89 1013.4
20260509052104 50 197 0.0 0.0 0.00 0.00 0.00 88 1013.4
20260509051504 50 197 0.0 0.0 0.00 0.00 0.00 88 1013.5
20260509051010 50 197 0.0 0.0 0.00 0.00 0.00 88 1013.5
20260509050603 50 197 0.0 0.0 0.00 0.00 0.00 88 1013.6
20260509050006 51 197 0.0 0.0 0.00 0.00 0.00 88 1013.6
20260509045509 51 197 0.0 0.0 0.00 0.00 0.00 88 1013.7
20260509045103 51 197 0.0 0.0 0.00 0.00 0.00 88 1013.7
20260509044504 51 197 0.0 0.0 0.00 0.00 0.00 88 1013.8
20260509044012 51 197 0.0 0.0 0.00 0.00 0.00 88 1013.8
20260509043603 51 197 0.0 0.0 0.00 0.00 0.00 88 1013.8
20260509043004 51 197 0.0 0.0 0.00 0.00 0.00 88 1013.8
20260509042509 51 197 0.0 0.0 0.00 0.00 0.00 88 1013.7
20260509042103 51 197 0.0 0.0 0.00 0.00 0.00 88 1013.7
20260509041506 51 197 0.0 0.0 0.00 0.00 0.00 87 1013.7
20260509041004 51 197 0.0 0.0 0.00 0.00 0.00 87 1013.7
20260509040503 51 197 0.0 0.0 0.00 0.00 0.00 87 1013.6
20260509040011 51 197 0.0 0.0 0.00 0.00 0.00 86 1013.7
20260509035604 52 197 0.0 0.0 0.00 0.00 0.00 87 1013.7
20260509035004 52 197 0.0 0.0 0.00 0.00 0.00 87 1013.6
20260509034510 52 197 0.0 0.0 0.00 0.00 0.00 87 1013.7
20260509034104 52 197 0.0 0.0 0.00 0.00 0.00 87 1013.6
20260509033504 52 197 0.0 0.0 0.00 0.00 0.00 87 1013.7
20260509033010 52 197 0.0 0.0 0.00 0.00 0.00 87 1013.7
20260509032605 52 197 0.0 0.0 0.00 0.00 0.00 87 1013.6
20260509032004 52 197 0.0 0.0 0.00 0.00 0.00 86 1013.6
20260509031513 52 197 0.0 0.0 0.00 0.00 0.00 86 1013.5
20260509031105 52 197 0.0 0.0 0.00 0.00 0.00 86 1013.6
20260509030504 52 197 0.0 0.0 0.00 0.00 0.00 86 1013.6
20260509030014 52 197 0.0 0.0 0.00 0.00 0.00 86 1013.7
20260509025603 52 197 0.0 0.0 0.00 0.00 0.00 85 1013.9
20260509025003 52 197 0.0 0.0 0.00 0.00 0.00 85 1013.9
20260509024511 52 197 0.0 0.0 0.00 0.00 0.00 85 1013.9
20260509024104 53 197 0.0 0.0 0.00 0.00 0.00 85 1013.8
20260509023502 53 197 0.0 0.0 0.00 0.00 0.00 85 1014.0
20260509023016 53 197 0.0 0.0 0.00 0.00 0.00 85 1013.9
20260509022604 53 197 0.0 0.0 0.00 0.00 0.00 85 1014.0
20260509022004 53 197 0.0 0.0 0.00 0.00 0.00 84 1014.0
20260509021510 53 197 0.0 0.0 0.00 0.00 0.00 84 1014.0
20260509021103 53 197 0.0 0.0 0.00 0.00 0.00 83 1014.0
20260509020505 53 197 0.0 0.0 0.00 0.00 0.00 83 1014.1
20260509020012 53 197 0.0 0.0 0.00 0.00 0.00 83 1014.0
20260509015604 54 197 0.0 0.0 0.00 0.00 0.00 83 1014.0
20260509015004 54 197 0.0 0.0 0.00 0.00 0.00 82 1013.9
20260509014511 54 197 0.0 0.0 0.00 0.00 0.00 81 1013.9
20260509014105 54 197 0.0 0.0 0.00 0.00 0.00 81 1013.9
20260509013503 54 197 0.0 0.0 0.00 0.00 0.00 81 1013.9
20260509013011 54 197 0.0 0.0 0.00 0.00 0.00 82 1013.9
20260509012605 55 197 0.0 0.0 0.00 0.00 0.00 81 1013.8
20260509012003 55 197 0.0 0.0 0.00 0.00 0.00 81 1013.8
20260509011510 55 197 0.0 0.0 0.00 0.00 0.00 81 1013.6
20260509011106 55 197 0.0 0.0 0.00 0.00 0.00 81 1013.6
20260509010504 56 197 0.0 0.0 0.00 0.00 0.00 79 1013.6
20260509010014 56 197 0.0 0.0 0.00 0.00 0.00 78 1013.6
20260509005511 56 197 0.0 0.0 0.00 0.00 0.00 79 1013.5
20260509005102 56 197 0.0 0.0 0.00 0.00 0.00 78 1013.4
20260509004507 57 197 0.0 0.0 0.00 0.00 0.00 76 1013.5
20260509004011 57 197 0.0 0.0 0.00 0.00 0.00 74 1013.5
20260509003604 58 197 0.0 0.0 0.00 0.00 0.00 73 1013.5
20260509003004 58 197 0.0 0.0 0.00 0.00 0.00 72 1013.4
20260509002511 58 197 0.0 0.0 0.00 0.00 0.00 72 1013.4
20260509002103 59 197 0.0 0.0 0.00 0.00 0.00 70 1013.3
20260509001504 59 197 0.0 0.0 0.00 0.00 0.00 69 1013.1
20260509001009 60 197 0.0 0.0 0.00 0.00 0.00 67 1013.0
20260509000605 60 197 0.0 0.0 0.00 0.00 0.00 67 1013.1
20260509000003 61 197 0.0 0.0 0.00 0.00 0.00 66 1013.1
20260508235509 61 197 0.0 0.0 0.00 0.00 0.00 65 1013.0
20260508235103 62 197 0.0 0.0 0.00 0.00 0.00 65 1013.0
20260508234503 62 197 0.0 0.0 0.00 0.00 0.00 65 1013.0
20260508234010 62 197 0.0 0.0 0.00 0.00 0.00 64 1013.1
20260508233604 63 197 0.0 0.0 0.00 0.00 0.00 64 1013.0
20260508233003 63 197 0.0 0.0 0.00 0.00 0.00 62 1013.1
20260508232509 64 197 0.0 0.0 0.00 0.00 0.00 58 1013.2
20260508232102 64 197 0.0 0.0 0.00 0.00 0.00 59 1013.2
20260508231503 64 197 0.0 0.0 0.00 0.00 0.00 56 1013.4
20260508231009 64 197 0.0 0.0 0.00 0.00 0.00 55 1013.2
20260508230603 64 197 0.0 0.0 0.00 0.00 0.00 56 1013.2
20260508230004 65 197 0.0 1.0 0.00 0.00 0.00 56 1013.2
20260508225510 65 197 0.0 1.0 0.00 0.01 0.00 56 1013.2
20260508225103 65 197 0.0 3.0 0.00 0.01 0.00 51 1013.2
20260508224502 65 197 0.0 4.0 0.00 0.01 0.00 55 1013.2
20260508224009 65 188 1.0 3.0 0.00 0.01 0.00 58 1013.2
20260508223604 66 233 0.0 2.0 0.00 0.01 0.00 48 1013.2
20260508223003 66 233 0.0 1.0 0.00 0.01 0.00 52 1013.2
20260508222510 66 233 0.0 1.0 0.00 0.01 0.00 43 1013.2
20260508222106 66 233 0.0 0.0 0.00 0.01 0.00 49 1013.2
20260508221504 66 233 0.0 2.0 0.00 0.01 0.00 50 1013.2
20260508221010 66 233 0.0 2.0 0.00 0.01 0.00 47 1013.0
20260508220602 67 233 0.0 2.0 0.00 0.01 0.00 51 1013.0
20260508220002 67 233 0.0 2.0 0.00 0.01 0.00 45 1012.9
20260508215509 67 233 0.0 4.0 0.00 0.03 0.00 41 1013.0
20260508215103 67 233 2.0 4.0 0.00 0.03 0.00 37 1012.8
20260508214504 67 188 0.0 3.0 0.00 0.03 0.00 39 1013.0
20260508214009 68 188 0.0 3.0 0.00 0.03 0.00 40 1013.1
20260508213604 68 217 1.0 3.0 0.00 0.03 0.00 43 1013.3
20260508213008 68 217 0.0 3.0 0.00 0.03 0.00 47 1013.2
20260508212517 68 217 1.0 3.0 0.00 0.03 0.00 41 1013.3
20260508212103 69 217 0.0 3.0 0.00 0.03 0.00 48 1013.4
20260508211505 69 217 0.0 3.0 0.00 0.03 0.00 41 1013.2
20260508211009 69 217 0.0 4.0 0.00 0.03 0.00 37 1013.2
20260508210604 69 217 1.0 4.0 0.00 0.03 0.00 33 1013.2
20260508210007 70 205 1.0 6.0 0.00 0.03 0.00 40 1013.2
20260508205509 70 170 2.0 10.0 0.00 0.21 0.00 38 1013.3
20260508205103 70 228 3.0 10.0 0.00 0.21 0.00 37 1013.3
20260508204503 70 209 2.0 7.0 0.00 0.21 0.00 33 1013.4
20260508204009 70 215 3.0 9.0 0.00 0.21 0.00 36 1013.4
20260508203605 71 208 0.0 9.0 0.00 0.21 0.00 35 1013.5
20260508203004 71 214 2.0 9.0 0.00 0.21 0.00 35 1013.4
20260508202509 71 155 2.0 9.0 0.00 0.21 0.00 36 1013.6
20260508202103 71 195 3.0 9.0 0.00 0.21 0.00 39 1013.8
20260508201503 72 210 1.0 7.0 0.00 0.21 0.00 35 1014.0
20260508201010 72 234 1.0 6.0 0.00 0.21 0.00 42 1014.0
20260508200603 72 176 3.0 6.0 0.00 0.21 0.00 38 1014.0
20260508200003 72 159 1.0 5.0 0.00 0.21 0.00 37 1013.9
20260508195510 72 202 1.0 3.0 0.00 0.21 0.00 40 1013.9
20260508195104 72 257 0.0 3.0 0.00 0.21 0.00 34 1014.0
20260508194504 72 214 0.0 3.0 0.00 0.21 0.00 38 1014.1
20260508194009 72 214 1.0 4.0 0.00 0.21 0.00 38 1014.2
20260508193603 71 215 2.0 6.0 0.00 0.21 0.00 34 1014.1
20260508193003 71 181 1.0 5.0 0.00 0.21 0.00 37 1014.2
20260508192512 71 202 2.0 4.0 0.00 0.21 0.00 35 1014.3
20260508192103 71 205 2.0 4.0 0.00 0.21 0.00 38 1014.4
20260508191503 71 216 2.0 6.0 0.00 0.21 0.00 37 1014.5
20260508191009 71 159 1.0 6.0 0.00 0.21 0.00 38 1014.8
20260508190603 72 191 2.0 6.0 0.00 0.21 0.00 38 1014.7
20260508190005 72 180 1.0 4.0 0.00 0.21 0.00 37 1014.7
20260508185509 71 304 1.0 7.0 0.00 0.21 0.00 33 1014.6
20260508185104 71 188 1.0 7.0 0.00 0.21 0.00 39 1014.7
20260508184507 71 230 1.0 4.0 0.00 0.21 0.00 40 1014.8
20260508184011 70 175 1.0 4.0 0.00 0.21 0.00 41 1014.9
20260508183603 70 174 1.0 4.0 0.00 0.21 0.00 39 1014.9
20260508183004 70 226 1.0 5.0 0.00 0.21 0.00 39 1015.0
20260508182513 71 172 1.0 5.0 0.00 0.21 0.00 39 1015.0
20260508182103 71 218 2.0 5.0 0.00 0.21 0.00 42 1015.0
20260508181502 71 181 0.0 3.0 0.00 0.21 0.00 39 1015.1
20260508181013 71 164 1.0 3.0 0.00 0.21 0.00 42 1015.2
20260508180604 71 135 0.0 3.0 0.00 0.21 0.00 47 1015.4
20260508180004 70 8 1.0 5.0 0.00 0.21 0.00 37 1015.3
20260508175509 70 214 2.0 5.0 0.00 0.21 0.00 37 1015.5
20260508175105 70 176 2.0 6.0 0.00 0.21 0.00 40 1015.5
20260508174505 70 205 2.0 6.0 0.00 0.21 0.00 40 1015.5
20260508174009 70 184 2.0 5.0 0.00 0.21 0.00 43 1015.6
20260508173603 70 170 0.0 2.0 0.00 0.21 0.00 43 1015.7
20260508173005 69 164 1.0 4.0 0.00 0.21 0.00 47 1015.8
20260508172509 69 167 1.0 4.0 0.00 0.21 0.00 52 1015.8
20260508172106 68 167 2.0 5.0 0.00 0.21 0.00 45 1016.0
20260508171507 68 226 0.0 5.0 0.00 0.21 0.00 44 1015.9
20260508171008 68 193 1.0 4.0 0.00 0.21 0.00 41 1016.0
20260508170603 68 225 1.0 4.0 0.00 0.21 0.00 44 1016.0
20260508170003 68 224 1.0 5.0 0.00 0.21 0.00 47 1016.1
20260508165509 68 228 2.0 5.0 0.00 0.21 0.00 47 1016.1
20260508165103 67 160 0.0 4.0 0.00 0.21 0.00 45 1016.1
20260508164503 67 6 2.0 5.0 0.00 0.21 0.00 46 1016.2
20260508164011 67 162 1.0 3.0 0.00 0.21 0.00 47 1016.4
20260508163602 67 340 1.0 5.0 0.00 0.21 0.00 46 1016.5
20260508163003 67 340 3.0 5.0 0.00 0.21 0.00 52 1016.6
20260508162509 66 324 1.0 4.0 0.00 0.21 0.00 46 1016.7
20260508162103 66 332 1.0 4.0 0.00 0.21 0.00 45 1016.8
20260508161504 66 255 0.0 7.0 0.00 0.21 0.00 42 1016.8
20260508161011 66 323 2.0 7.0 0.00 0.21 0.00 47 1016.9
20260508160604 66 337 2.0 4.0 0.00 0.21 0.00 52 1016.9
20260508160003 65 308 0.0 5.0 0.00 0.21 0.00 54 1016.9
20260508155511 65 347 2.0 5.0 0.00 0.22 0.00 55 1017.1
20260508155105 65 30 2.0 5.0 0.00 0.22 0.00 48 1017.0
20260508154503 64 290 0.0 5.0 0.00 0.22 0.00 60 1017.2
20260508154009 64 34 2.0 6.0 0.00 0.22 0.00 52 1017.1
20260508153603 63 347 2.0 6.0 0.00 0.22 0.00 57 1017.2
20260508153004 63 334 2.0 4.0 0.00 0.22 0.00 65 1017.2
20260508152510 63 248 1.0 4.0 0.00 0.22 0.00 59 1017.3
20260508152105 62 326 0.0 4.0 0.00 0.22 0.00 53 1017.4
20260508151503 62 320 1.0 4.0 0.00 0.22 0.00 58 1017.4
20260508151010 61 346 1.0 3.0 0.00 0.22 0.00 63 1017.5
20260508150603 60 230 0.0 4.0 0.00 0.22 0.00 65 1017.5
20260508150007 60 8 1.0 5.0 0.00 0.22 0.00 63 1017.5
20260508145509 59 347 1.0 5.0 0.00 0.25 0.00 67 1017.6
20260508145105 59 250 0.0 5.0 0.00 0.25 0.00 70 1017.5
20260508144504 58 348 1.0 2.0 0.00 0.25 0.00 78 1017.5
20260508144009 57 25 0.0 5.0 0.00 0.25 0.00 72 1017.4
20260508143604 57 29 0.0 5.0 0.00 0.25 0.00 77 1017.4
20260508143007 56 299 1.0 3.0 0.00 0.25 0.00 78 1017.4
20260508142509 55 348 1.0 3.0 0.00 0.25 0.00 79 1017.3
20260508142103 55 347 0.0 3.0 0.00 0.25 0.00 87 1017.3
20260508141503 54 349 1.0 3.0 0.00 0.25 0.00 92 1017.3
20260508141011 53 311 0.0 2.0 0.00 0.25 0.00 94 1017.3
20260508140603 52 346 0.0 1.0 0.00 0.25 0.00 93 1017.3
20260508140004 51 359 0.0 3.0 0.00 0.25 0.00 88 1017.3
20260508135511 51 359 0.0 3.0 0.00 0.30 0.00 90 1017.3
20260508135103 50 349 0.0 2.0 0.00 0.30 0.00 94 1017.2
20260508134502 50 328 1.0 2.0 0.00 0.30 0.00 95 1017.2
20260508134009 49 2 1.0 4.0 0.00 0.30 0.00 98 1017.2
20260508133603 50 6 1.0 4.0 0.00 0.30 0.00 98 1017.2
20260508133002 50 6 1.0 4.0 0.00 0.30 0.00 98 1017.1
20260508132509 50 336 0.0 3.0 0.00 0.30 0.00 98 1017.1
20260508132103 50 41 0.0 2.0 0.00 0.30 0.00 98 1017.1
20260508131503 49 309 0.0 0.0 0.00 0.30 0.00 98 1017.0
20260508131009 49 309 0.0 0.0 0.00 0.30 0.00 98 1017.0
20260508130603 48 309 0.0 0.0 0.00 0.30 0.00 98 1017.0
20260508130003 48 309 0.0 2.0 0.00 0.30 0.00 98 1016.9
20260508125509 48 310 0.0 2.0 0.00 0.39 0.00 98 1016.9
20260508125104 47 317 0.0 0.0 0.00 0.39 0.00 98 1016.9
20260508124504 47 317 0.0 0.0 0.00 0.39 0.00 98 1016.9
20260508124009 47 317 0.0 0.0 0.00 0.39 0.00 98 1016.9
20260508123602 46 317 0.0 0.0 0.00 0.39 0.00 98 1016.8
20260508123004 45 317 0.0 0.0 0.00 0.39 0.00 98 1016.8
20260508122509 44 317 0.0 0.0 0.00 0.39 0.00 98 1016.8
20260508122103 44 317 0.0 0.0 0.00 0.39 0.00 98 1016.7
20260508121503 43 317 0.0 0.0 0.00 0.39 0.00 98 1016.7
20260508121009 43 317 0.0 0.0 0.00 0.39 0.00 98 1016.7
20260508120603 43 317 0.0 0.0 0.00 0.39 0.00 98 1016.6
20260508120003 42 317 0.0 0.0 0.00 0.39 0.00 97 1016.5
20260508115510 42 317 0.0 0.0 0.00 0.44 0.00 97 1016.4
20260508115105 42 317 0.0 0.0 0.00 0.44 0.00 97 1016.4
20260508114503 41 317 0.0 0.0 0.00 0.44 0.00 97 1016.3
20260508114009 41 317 0.0 0.0 0.00 0.44 0.00 97 1016.3
20260508113602 41 317 0.0 0.0 0.00 0.44 0.00 97 1016.3
20260508113003 41 317 0.0 0.0 0.00 0.44 0.00 97 1016.2
20260508112509 41 317 0.0 0.0 0.00 0.44 0.00 97 1016.1
20260508112103 41 317 0.0 0.0 0.00 0.44 0.00 96 1016.1
20260508111503 41 317 0.0 0.0 0.00 0.44 0.00 96 1015.9
20260508111010 41 317 0.0 0.0 0.00 0.44 0.00 96 1015.8
20260508110603 41 317 0.0 0.0 0.00 0.44 0.00 96 1015.8
20260508110003 41 317 0.0 0.0 0.00 0.44 0.00 96 1015.5
20260508105509 41 317 0.0 0.0 0.00 0.46 0.00 96 1015.4
20260508105103 41 317 0.0 0.0 0.00 0.46 0.00 96 1015.4
20260508104503 41 317 0.0 0.0 0.00 0.46 0.00 96 1015.3
20260508104011 41 317 0.0 0.0 0.00 0.46 0.00 96 1015.3
20260508103603 41 317 0.0 0.0 0.00 0.46 0.00 96 1015.2
20260508103006 41 317 0.0 0.0 0.00 0.46 0.00 96 1015.1
20260508102513 41 317 0.0 0.0 0.00 0.46 0.00 96 1015.0
20260508102102 41 317 0.0 0.0 0.00 0.46 0.00 96 1015.0
20260508101505 41 317 0.0 0.0 0.00 0.46 0.00 96 1015.0
20260508101010 42 317 0.0 0.0 0.00 0.46 0.00 96 1015.0
20260508100602 42 317 0.0 0.0 0.00 0.46 0.00 96 1014.8
20260508100006 42 317 0.0 0.0 0.00 0.46 0.00 96 1014.8
20260508095510 42 317 0.0 0.0 0.00 0.47 0.00 96 1014.8
20260508095102 42 317 0.0 0.0 0.00 0.47 0.00 96 1014.7
20260508094503 42 317 0.0 0.0 0.00 0.47 0.00 96 1014.6
20260508094015 42 317 0.0 0.0 0.00 0.47 0.00 96 1014.5
20260508093603 42 317 0.0 0.0 0.00 0.47 0.00 96 1014.4
20260508093005 42 317 0.0 0.0 0.00 0.47 0.00 96 1014.4
20260508092510 43 317 0.0 0.0 0.00 0.47 0.00 96 1014.4
20260508092103 43 317 0.0 0.0 0.00 0.47 0.00 96 1014.4
20260508091506 43 316 0.0 0.0 0.00 0.47 0.00 96 1014.4
20260508091010 43 316 0.0 0.0 0.00 0.47 0.00 96 1014.4
20260508090604 43 316 0.0 0.0 0.00 0.47 0.00 96 1014.4
20260508090005 43 316 0.0 0.0 0.00 0.47 0.00 96 1014.3
20260508085509 43 316 0.0 0.0 0.00 0.48 0.00 96 1014.3
20260508085102 43 316 0.0 0.0 0.00 0.48 0.00 96 1014.3
20260508084503 43 316 0.0 0.0 0.00 0.48 0.00 96 1014.2
20260508084010 44 316 0.0 0.0 0.00 0.48 0.00 96 1014.1
20260508083603 44 316 0.0 0.0 0.00 0.48 0.00 96 1014.1
20260508083002 44 316 0.0 0.0 0.00 0.48 0.00 96 1014.2
20260508082509 44 316 0.0 0.0 0.00 0.48 0.00 96 1014.0
20260508082103 44 316 0.0 0.0 0.00 0.48 0.00 96 1013.9
20260508081503 44 316 0.0 0.0 0.00 0.48 0.00 96 1013.8
20260508081009 44 316 0.0 0.0 0.00 0.48 0.00 96 1013.7
20260508080605 44 316 0.0 0.0 0.00 0.48 0.00 96 1013.7
20260508080005 44 316 0.0 0.0 0.00 0.48 0.00 96 1013.6
20260508075509 45 316 0.0 0.0 0.00 0.48 0.00 96 1013.7
20260508075105 45 316 0.0 0.0 0.00 0.48 0.00 96 1013.6
20260508074502 45 316 0.0 0.0 0.00 0.48 0.00 96 1013.7
20260508074009 45 316 0.0 0.0 0.00 0.48 0.00 96 1013.6
20260508073603 45 316 0.0 0.0 0.00 0.48 0.00 96 1013.6
20260508073002 45 316 0.0 0.0 0.00 0.48 0.00 96 1013.5
20260508072508 45 316 0.0 0.0 0.00 0.48 0.00 96 1013.6
20260508072104 45 316 0.0 0.0 0.00 0.48 0.00 96 1013.5
20260508071503 46 316 0.0 0.0 0.00 0.48 0.00 96 1013.5
20260508071009 46 316 0.0 0.0 0.00 0.48 0.00 96 1013.5
20260508070603 46 316 0.0 0.0 0.00 0.48 0.00 96 1013.4
20260508070005 46 316 0.0 0.0 0.00 0.48 0.00 96 1013.4
20260508065517 46 316 0.0 0.0 0.00 0.50 0.00 96 1013.2
20260508065102 46 316 0.0 0.0 0.00 0.50 0.00 96 1013.3
20260508064504 46 316 0.0 0.0 0.00 0.50 0.00 96 1013.3
20260508064009 46 316 0.0 0.0 0.00 0.50 0.00 96 1013.2
20260508063602 47 316 0.0 0.0 0.00 0.50 0.00 96 1013.2
20260508063003 47 316 0.0 0.0 0.00 0.50 0.00 96 1013.2
20260508062511 47 316 0.0 0.0 0.00 0.50 0.00 96 1013.2
20260508062102 47 316 0.0 0.0 0.00 0.50 0.00 96 1013.2
20260508061505 47 316 0.0 0.0 0.00 0.50 0.00 96 1013.1
20260508061010 47 316 0.0 0.0 0.00 0.50 0.00 96 1013.1
20260508060602 47 316 0.0 0.0 0.00 0.50 0.00 96 1013.2
20260508060003 48 316 0.0 0.0 0.00 0.50 0.00 96 1013.2
20260508055509 48 316 0.0 1.0 0.00 0.52 0.00 96 1013.2
20260508055102 48 316 0.0 1.0 0.00 0.52 0.00 96 1013.1
20260508054503 48 316 0.0 0.0 0.00 0.52 0.00 96 1013.0
20260508054009 48 316 0.0 0.0 0.00 0.52 0.00 96 1013.0
20260508053603 48 316 0.0 0.0 0.00 0.52 0.00 96 1013.1